Total_Precipitation_Accumulation
1.49 1.58 1.51 1.47 1.50 1.50 1.61 1.69 1.63 1.43 1.25 1.17 1.07 0.94 0.91 0.89 0.87 0.86 0.82 0.72 0.62 0.57 0.51 0.48 0.50 0.51 0.57 0.70 0.86 1.00 1.09 1.15 1.19 1.21 1.26 1.32 1.41 1.55
1.29 1.35 1.41 1.44 1.58 1.54 1.60 1.68 1.72 1.62 1.32 1.26 1.17 0.97 1.02 0.80 0.78 0.81 0.81 0.72 0.56 0.50 0.47 0.45 0.46 0.49 0.50 0.53 0.61 0.73 0.85 0.94 1.03 1.10 1.11 1.10 1.10 1.16
0.97 1.01 1.06 1.16 1.29 1.33 1.41 1.48 1.60 1.65 1.38 1.35 1.48 1.35 1.32 1.09 0.92 0.85 0.71 0.67 0.60 0.50 0.44 0.42 0.40 0.43 0.50 0.51 0.51 0.56 0.64 0.72 0.78 0.88 1.03 1.12 1.15 1.18
0.82 0.84 0.81 0.90 1.06 1.12 1.21 1.32 1.49 1.68 1.53 1.45 1.60 1.65 1.56 1.36 1.23 1.05 0.79 0.63 0.66 0.62 0.48 0.42 0.39 0.39 0.45 0.49 0.47 0.48 0.52 0.56 0.59 0.64 0.76 0.88 1.00 1.11
0.60 0.59 0.60 0.67 0.79 0.92 1.06 1.12 1.24 1.56 1.63 1.50 1.55 1.79 1.78 1.61 1.56 1.30 1.11 1.00 0.75 0.69 0.56 0.46 0.43 0.42 0.45 0.50 0.49 0.47 0.47 0.48 0.50 0.56 0.66 0.78 0.87 0.93
0.50 0.43 0.42 0.51 0.64 0.75 0.86 0.97 1.08 1.25 1.45 1.52 1.53 1.74 1.84 1.74 1.84 1.63 1.40 1.23 1.01 0.80 0.71 0.53 0.47 0.48 0.48 0.51 0.53 0.53 0.53 0.53 0.54 0.61 0.67 0.73 0.83 0.91
0.49 0.40 0.35 0.39 0.46 0.57 0.63 0.75 0.90 1.05 1.16 1.34 1.46 1.62 1.84 1.84 1.72 1.70 1.54 1.38 1.29 1.17 1.13 0.81 0.55 0.47 0.47 0.49 0.55 0.62 0.68 0.69 0.69 0.74 0.82 0.87 0.91 0.96
0.47 0.43 0.37 0.33 0.33 0.38 0.44 0.51 0.60 0.71 0.88 1.09 1.22 1.37 1.60 1.79 1.76 1.80 1.72 1.49 1.38 1.31 1.36 1.39 1.06 0.80 0.64 0.47 0.46 0.55 0.69 0.80 0.84 0.88 0.94 1.06 1.17 1.15
0.43 0.42 0.32 0.27 0.29 0.29 0.30 0.34 0.42 0.43 0.51 0.74 0.89 0.96 1.11 1.39 1.68 1.82 1.88 1.74 1.56 1.54 1.54 1.67 1.76 1.49 1.02 0.71 0.61 0.53 0.61 0.75 0.83 0.90 0.97 1.02 1.18 1.34
0.41 0.39 0.36 0.32 0.32 0.34 0.37 0.37 0.34 0.32 0.33 0.38 0.49 0.68 0.82 1.04 1.39 1.61 1.84 2.02 1.92 1.85 1.78 1.88 1.99 2.19 1.75 1.19 0.96 0.74 0.70 0.74 0.83 0.89 0.95 1.04 1.11 1.20
0.42 0.40 0.38 0.36 0.32 0.27 0.34 0.38 0.34 0.32 0.29 0.32 0.38 0.52 0.71 0.84 1.12 1.46 1.69 1.80 1.88 1.97 1.94 2.00 2.03 2.16 2.49 2.08 1.40 1.00 0.79 0.72 0.77 0.84 0.89 1.01 1.08 1.07
0.53 0.52 0.40 0.32 0.30 0.26 0.28 0.34 0.33 0.30 0.31 0.31 0.35 0.41 0.50 0.64 0.84 1.11 1.30 1.45 1.51 1.66 1.63 1.54 1.60 1.72 2.20 2.53 2.19 1.55 1.09 0.89 0.78 0.76 0.78 0.89 1.00 0.92
0.56 0.57 0.51 0.37 0.26 0.23 0.26 0.31 0.30 0.34 0.42 0.42 0.42 0.47 0.55 0.61 0.67 0.87 1.09 1.27 1.33 1.23 1.11 1.16 1.34 1.42 1.50 1.84 2.10 2.06 1.67 1.32 1.10 0.95 0.88 0.87 0.91 0.91
0.66 0.64 0.61 0.46 0.33 0.24 0.22 0.25 0.28 0.29 0.38 0.44 0.44 0.46 0.52 0.56 0.62 0.77 0.94 1.09 1.21 1.25 1.17 1.15 1.30 1.34 1.39 1.50 1.64 1.79 1.85 1.70 1.52 1.38 1.28 1.23 1.09 1.04
0.74 0.72 0.69 0.52 0.41 0.33 0.28 0.28 0.30 0.33 0.38 0.42 0.42 0.42 0.46 0.54 0.64 0.79 0.93 1.05 1.12 1.13 1.12 1.10 1.11 1.10 1.14 1.27 1.33 1.33 1.44 1.59 1.61 1.57 1.55 1.51 1.39 1.26
0.76 0.71 0.67 0.61 0.51 0.47 0.42 0.36 0.33 0.39 0.41 0.43 0.46 0.48 0.54 0.64 0.71 0.75 0.85 0.95 1.08 1.11 1.06 1.05 1.03 1.03 0.99 0.92 0.90 0.87 0.89 1.04 1.24 1.35 1.48 1.66 1.70 1.64
0.85 0.81 0.78 0.73 0.66 0.63 0.61 0.55 0.49 0.50 0.50 0.53 0.57 0.57 0.57 0.64 0.73 0.77 0.82 0.82 0.86 0.96 1.01 1.03 1.06 1.06 1.03 0.96 0.89 0.81 0.77 0.73 0.78 0.99 1.21 1.52 1.63 1.48
0.78 0.84 0.83 0.79 0.73 0.71 0.72 0.69 0.65 0.63 0.62 0.62 0.62 0.62 0.59 0.61 0.69 0.79 0.85 0.81 0.77 0.80 0.90 0.94 1.05 1.18 1.24 1.16 0.90 0.77 0.77 0.74 0.73 0.79 0.89 1.00 1.11 1.04
0.73 0.82 0.78 0.78 0.78 0.78 0.77 0.73 0.71 0.70 0.72 0.71 0.67 0.66 0.64 0.65 0.67 0.75 0.84 0.84 0.79 0.79 0.89 0.95 0.97 0.98 0.99 0.98 0.89 0.65 0.62 0.63 0.69 0.81 0.84 0.77 0.74 0.68
0.72 0.77 0.77 0.77 0.78 0.81 0.81 0.76 0.76 0.79 0.79 0.77 0.73 0.69 0.66 0.66 0.67 0.70 0.76 0.80 0.77 0.77 0.84 0.92 0.89 0.83 0.77 0.74 0.74 0.69 0.55 0.58 0.58 0.66 0.75 0.74 0.68 0.58
0.74 0.77 0.76 0.75 0.77 0.81 0.81 0.77 0.77 0.76 0.74 0.75 0.74 0.71 0.66 0.62 0.66 0.68 0.73 0.79 0.80 0.76 0.74 0.75 0.76 0.85 0.90 0.99 0.98 0.93 0.77 0.64 0.63 0.57 0.62 0.71 0.75 0.70
0.63 0.68 0.71 0.72 0.76 0.78 0.75 0.71 0.73 0.73 0.72 0.72 0.71 0.70 0.66 0.59 0.60 0.65 0.68 0.71 0.71 0.69 0.68 0.72 0.82 0.92 0.97 0.98 0.99 0.98 0.96 0.89 0.83 0.84 0.77 0.64 0.57 0.58
0.61 0.65 0.65 0.64 0.68 0.70 0.65 0.61 0.65 0.68 0.67 0.68 0.67 0.65 0.62 0.58 0.56 0.61 0.66 0.69 0.72 0.74 0.75 0.80 0.83 0.87 0.91 0.93 1.01 1.06 1.01 0.96 0.91 0.89 0.85 0.70 0.51 0.43